Regional Weather Roundup
Issued by NWS

Home | Current Version | Previous Version | Graphics & Text | Print | Product List | Glossary On
Versions: 1 2 3 4 5 6 7 8 9 10 11 12 13 14 15 16 17 18 19 20 21 22 23 24 25 26 27 28 29 30 31 32 33 34 35 36 37 38 39 40 41 42 43 44 45 46 47 48 49 50
660
ASUS43 KFSD 161210
RWRSD

WEATHER ROUNDUP FOR SOUTH DAKOTA
NATIONAL WEATHER SERVICE SIOUX FALLS SD
600 AM CST SAT DEC 16 2017

NOTE: "FAIR" INDICATES FEW OR NO CLOUDS BELOW 12,000 FEET WITH NO
SIGNIFICANT WEATHER AND/OR OBSTRUCTIONS TO VISIBILITY.


SDZ001>005-009-010-012>017-161300-
NORTHWEST AND NORTH CENTRAL SOUTH DAKOTA

CITY           SKY/WX    TMP DP  RH WIND       PRES   REMARKS
BUFFALO          N/A     34  30  85 NW15      29.76R WCI  24
FAITH            N/A     33  30  88 NW10      29.80R WCI  25
MOBRIDGE       CLOUDY    38  32  79 NW7       29.74R
$$

SDZ012>016-024>037-041>051-057-063-072>074-161300-
SOUTHWEST AND SOUTH CENTRAL SOUTH DAKOTA

CITY           SKY/WX    TMP DP  RH WIND       PRES   REMARKS
RAPID CTY ARPT CLOUDY    38  20  48 N14       29.80R
PIERRE         CLOUDY    33  26  75 NW12      29.76R WCI  24
CUSTER         CLOUDY    31  15  52 N5        29.78F WCI  26
ELLSWORTH AFB  CLOUDY    39  20  46 N18G24    29.80R
PHILIP         MOCLDY    38  26  62 N17       29.79R
PINE RIDGE     CLOUDY    27  22  81 CALM      29.79R
SPEARFISH      MOCLDY    34  21  60 NW9       29.85R WCI  26
WINNER         FAIR      34  23  64 W7        29.75R WCI  28
$$

SDZ004>011-016>023-039-040-161300-
NORTHEAST SOUTH DAKOTA

CITY           SKY/WX    TMP DP  RH WIND       PRES   REMARKS
ABERDEEN       CLOUDY    38  31  76 W6        29.73R
WATERTOWN      CLOUDY    30  26  85 NW7       29.68R WCI  23
BROOKINGS      CLOUDY    29  25  85 CALM      29.70R
SISSETON         N/A     31  28  89 NW7       29.68R WCI  24
$$

SDZ017-020-022-023-036>040-048>070-161300-
SOUTHEAST SOUTH DAKOTA

CITY           SKY/WX    TMP DP  RH WIND       PRES   REMARKS
SIOUX FALLS    CLOUDY    33  26  75 NW6       29.70R WCI  28
HURON          CLOUDY    27  23  85 NW8       29.74R WCI  19
CHAMBERLAIN    CLEAR     34  25  70 CALM      29.75R
MITCHELL       PTCLDY    29  24  82 NW8       29.73R WCI  21
YANKTON        CLOUDY    34  23  64 W5        29.73R WCI  30
$$

ABBREVIATIONS USED IN REMARKS
   TC - TEMPERATURE IN CELSIUS
  WCI - WIND CHILL INDEX
   HX - HEAT INDEX
  VSB - VISIBILITY





USA.gov is the U.S. government's official web portal to all federal, state and local government web resources and services.